Taylorville, IL

8:50 PM CDT on May 27, 2017 (GMT -0500)
Taylorville Municipal

Weather History for KTAZ - June, 2013

Change the Weather History Date:

Sunday, June 30, 2013

  Actual Average (KSPI) Record (KSPI)
Temperature  
Mean Temperature 68 °F -  
Max Temperature 75 °F 86 °F 102 °F (1931)
Min Temperature 60 °F 64 °F 52 °F (2004)
Cooling Degree Days 2    
Growing Degree Days 18 (Base 50)    
Moisture  
Dew Point 60 °F    
Average Humidity 79    
Maximum Humidity 100    
Minimum Humidity 53    
Precipitation  
Precipitation 0.00 in - - ()
Sea Level Pressure  
Sea Level Pressure 29.83 in    
Wind  
Wind Speed 10 mph (North)    
Max Wind Speed 20 mph    
Max Gust Speed 30 mph    
Visibility 10 miles    
Events Rain    
Averages and records for this station are not official NWS values.
T = Trace of Precipitation, MM = Missing Value Source: NWS Daily Summary

Daily Weather History Graph

Daily Weather History Graph

Search for Another Location

Airport or City:

Trip Planner

Search our weather history database for the weather conditions in past years. The results will help you decide how hot, cold, wet, or windy it might be!

Date:

Astronomy

Jun. 30, 2013 Rise Set
Actual Time 5:33 AM CDT 8:28 PM CDT
Civil Twilight 5:00 AM CDT 9:00 PM CDT
Nautical Twilight 4:20 AM CDT 9:41 PM CDT
Astronomical Twilight 3:32 AM CDT 10:28 PM CDT
Moon 12:30 AM CDT (6/30) 1:44 PM CDT (6/30)
Length of Visible Light 15h 59m
Length of Day
14h 55m
Last Quarter, 45% of the Moon is Illuminated
Jun 30
Last Quarter
Jul 8
New
Jul 15
First Quarter
Jul 22
Full
Jul 29
Last Quarter

Hourly Weather History & Observations

Time (CDT) Temp. Dew Point Humidity Pressure Visibility Wind Dir Wind Speed Gust Speed Precip Events Conditions
12:15 AM 64.4 °F 62.6 °F 94% 29.74 in 7.0 mi North 5.8 mph - N/A   Mostly Cloudy
12:35 AM 64.4 °F 62.6 °F 94% 29.74 in 7.0 mi North 5.8 mph - N/A   Scattered Clouds
12:55 AM 62.6 °F 62.6 °F 100% 29.74 in 10.0 mi North 8.1 mph - N/A   Clear
1:15 AM 62.6 °F 62.6 °F 100% 29.74 in 10.0 mi North 10.4 mph - N/A   Clear
1:35 AM 62.6 °F 60.8 °F 94% 29.74 in 10.0 mi North 8.1 mph - N/A   Clear
1:55 AM 62.6 °F 60.8 °F 94% 29.74 in 10.0 mi North 6.9 mph - N/A   Scattered Clouds
2:15 AM 62.6 °F 60.8 °F 94% 29.74 in 10.0 mi North 8.1 mph - N/A   Mostly Cloudy
2:35 AM 60.8 °F 60.8 °F 100% 29.75 in 10.0 mi NNW 5.8 mph - N/A   Scattered Clouds
2:55 AM 60.8 °F 60.8 °F 100% 29.75 in 10.0 mi NNW 6.9 mph - N/A   Mostly Cloudy
3:15 AM 60.8 °F 59.0 °F 94% 29.75 in 10.0 mi NNW 8.1 mph - N/A   Overcast
3:35 AM 60.8 °F 59.0 °F 94% 29.75 in 10.0 mi North 6.9 mph - N/A   Overcast
3:55 AM 60.8 °F 59.0 °F 94% 29.76 in 10.0 mi North 6.9 mph - N/A   Overcast
4:15 AM 60.8 °F 59.0 °F 94% 29.76 in 10.0 mi North 10.4 mph - N/A   Overcast
4:35 AM 60.8 °F 59.0 °F 94% 29.76 in 10.0 mi North 8.1 mph - N/A   Overcast
4:55 AM 60.8 °F 59.0 °F 94% 29.77 in 10.0 mi North 8.1 mph - N/A   Mostly Cloudy
5:15 AM 60.8 °F 59.0 °F 94% 29.77 in 10.0 mi North 9.2 mph - N/A   Overcast
5:35 AM 60.8 °F 59.0 °F 94% 29.78 in 10.0 mi North 8.1 mph - N/A   Mostly Cloudy
5:55 AM 60.8 °F 57.2 °F 88% 29.78 in 10.0 mi North 9.2 mph - N/A   Overcast
6:15 AM 60.8 °F 59.0 °F 94% 29.79 in 10.0 mi North 9.2 mph - N/A   Overcast
6:35 AM 60.8 °F 59.0 °F 94% 29.80 in 10.0 mi North 8.1 mph - N/A   Overcast
6:55 AM 60.8 °F 59.0 °F 94% 29.80 in 10.0 mi North 8.1 mph - N/A   Overcast
7:15 AM 62.6 °F 60.8 °F 94% 29.80 in 10.0 mi North 10.4 mph - N/A   Overcast
7:35 AM 62.6 °F 60.8 °F 94% 29.81 in 10.0 mi North 9.2 mph - N/A   Overcast
7:55 AM 62.6 °F 60.8 °F 94% 29.81 in 10.0 mi NNW 10.4 mph - N/A   Mostly Cloudy
8:15 AM 62.6 °F 60.8 °F 94% 29.82 in 10.0 mi North 9.2 mph - N/A   Mostly Cloudy
8:35 AM 62.6 °F 60.8 °F 94% 29.82 in 10.0 mi North 9.2 mph - N/A   Overcast
8:55 AM 62.6 °F 60.8 °F 94% 29.83 in 10.0 mi North 9.2 mph - N/A   Mostly Cloudy
9:15 AM 64.4 °F 60.8 °F 88% 29.83 in 10.0 mi North 11.5 mph - N/A   Mostly Cloudy
9:35 AM 64.4 °F 60.8 °F 88% 29.83 in 10.0 mi North 10.4 mph - N/A   Mostly Cloudy
9:55 AM 64.4 °F 60.8 °F 88% 29.84 in 10.0 mi North 10.4 mph - N/A   Scattered Clouds
10:15 AM 66.2 °F 60.8 °F 83% 29.84 in 10.0 mi North 8.1 mph - N/A   Scattered Clouds
10:35 AM 69.8 °F 62.6 °F 78% 29.83 in 10.0 mi North 11.5 mph - N/A   Scattered Clouds
10:55 AM 69.8 °F 60.8 °F 73% 29.84 in 10.0 mi North 12.7 mph - N/A   Scattered Clouds
11:15 AM 69.8 °F 60.8 °F 73% 29.84 in 10.0 mi North 12.7 mph - N/A   Scattered Clouds
11:35 AM 69.8 °F 60.8 °F 73% 29.85 in 10.0 mi North 12.7 mph - N/A   Scattered Clouds
11:55 AM 69.8 °F 62.6 °F 78% 29.85 in 10.0 mi North 10.4 mph - N/A   Scattered Clouds
12:15 PM 66.2 °F 62.6 °F 88% 29.85 in 7.0 mi North 11.5 mph - N/A Rain Light Rain
12:35 PM 69.8 °F 62.6 °F 78% 29.85 in 10.0 mi North 9.2 mph 17.3 mph N/A   Scattered Clouds
12:55 PM 68.0 °F 62.6 °F 83% 29.85 in 5.0 mi North 12.7 mph - N/A Rain Rain
1:15 PM 71.6 °F 64.4 °F 78% 29.84 in 10.0 mi North 9.2 mph - N/A   Scattered Clouds
1:35 PM 73.4 °F 62.6 °F 69% 29.84 in 10.0 mi North 11.5 mph 23.0 mph N/A   Clear
1:55 PM 71.6 °F 60.8 °F 69% 29.84 in 10.0 mi NNE 16.1 mph 23.0 mph N/A   Scattered Clouds
2:15 PM 71.6 °F 62.6 °F 73% 29.84 in 10.0 mi NNE 10.4 mph 16.1 mph N/A   Scattered Clouds
2:35 PM 71.6 °F 62.6 °F 73% 29.84 in 10.0 mi North 15.0 mph - N/A   Scattered Clouds
2:55 PM 73.4 °F 60.8 °F 65% 29.84 in 10.0 mi North 13.8 mph 24.2 mph N/A   Clear
3:15 PM 75.2 °F 60.8 °F 61% 29.83 in 10.0 mi NNE 18.4 mph 24.2 mph N/A   Clear
3:35 PM 75.2 °F 59.0 °F 57% 29.84 in 10.0 mi NNE 19.6 mph 28.8 mph N/A   Clear
3:55 PM 75.2 °F 59.0 °F 57% 29.84 in 10.0 mi NNE 18.4 mph 29.9 mph N/A   Scattered Clouds
4:15 PM 75.2 °F 57.2 °F 53% 29.85 in 10.0 mi NNE 13.8 mph 24.2 mph N/A   Clear
4:35 PM 73.4 °F 57.2 °F 57% 29.86 in 10.0 mi NE 18.4 mph 25.3 mph N/A   Clear
4:55 PM 73.4 °F 57.2 °F 57% 29.86 in 10.0 mi NE 18.4 mph 24.2 mph N/A   Scattered Clouds
5:15 PM 73.4 °F 60.8 °F 65% 29.86 in 10.0 mi NNE 17.3 mph 24.2 mph N/A   Scattered Clouds
5:35 PM 73.4 °F 59.0 °F 61% 29.86 in 10.0 mi NNE 15.0 mph 20.7 mph N/A   Scattered Clouds
5:55 PM 73.4 °F 60.8 °F 65% 29.86 in 10.0 mi NNE 15.0 mph 18.4 mph N/A   Scattered Clouds
6:15 PM 73.4 °F 60.8 °F 65% 29.86 in 10.0 mi NNE 11.5 mph 19.6 mph N/A   Clear
6:35 PM 71.6 °F 60.8 °F 69% 29.87 in 10.0 mi NNE 16.1 mph - N/A   Scattered Clouds
6:55 PM 71.6 °F 57.2 °F 60% 29.87 in 10.0 mi NE 15.0 mph 20.7 mph N/A   Scattered Clouds
7:15 PM 73.4 °F 59.0 °F 61% 29.88 in 10.0 mi NNE 16.1 mph 21.9 mph N/A   Clear
7:35 PM 71.6 °F 59.0 °F 64% 29.87 in 10.0 mi NNE 12.7 mph 20.7 mph N/A   Clear
7:55 PM 69.8 °F 57.2 °F 64% 29.87 in 10.0 mi NNE 10.4 mph - N/A   Clear
8:15 PM 69.8 °F 57.2 °F 64% 29.88 in 10.0 mi North 9.2 mph - N/A   Clear
8:35 PM 69.8 °F 59.0 °F 68% 29.88 in 10.0 mi NNE 9.2 mph - N/A   Scattered Clouds
8:55 PM 69.8 °F 59.0 °F 68% 29.89 in 10.0 mi NNE 9.2 mph - N/A   Scattered Clouds
9:15 PM 68.0 °F 59.0 °F 73% 29.90 in 10.0 mi NNE 6.9 mph - N/A   Scattered Clouds
9:35 PM 68.0 °F 59.0 °F 73% 29.90 in 10.0 mi NNE 9.2 mph - N/A   Scattered Clouds
9:55 PM 68.0 °F 59.0 °F 73% 29.91 in 10.0 mi NNE 9.2 mph - N/A   Clear
10:15 PM 68.0 °F 57.2 °F 68% 29.92 in 10.0 mi NNE 10.4 mph - N/A   Scattered Clouds
10:35 PM 68.0 °F 57.2 °F 68% 29.92 in 10.0 mi North 9.2 mph - N/A   Scattered Clouds
10:55 PM 66.2 °F 57.2 °F 73% 29.92 in 10.0 mi NNE 9.2 mph - N/A   Scattered Clouds
11:15 PM 66.2 °F 53.6 °F 64% 29.91 in 10.0 mi NNE 11.5 mph - N/A   Scattered Clouds
11:35 PM 66.2 °F 51.8 °F 60% 29.92 in 10.0 mi NNE 12.7 mph - N/A   Scattered Clouds
11:55 PM 66.2 °F 51.8 °F 60% 29.92 in 10.0 mi North 8.1 mph - N/A   Clear